Southern Pines, NC

1:02 PM EDT on April 20, 2018 (GMT -0400)
Moore County

Weather History for KSOP - April, 2014

Change the Weather History Date:

Thursday, April 10, 2014

  Actual Average Record
Temperature  
Mean Temperature 56 °F -  
Max Temperature 75 °F 69 °F 89 °F (2001)
Min Temperature 37 °F 47 °F 26 °F (2007)
Degree Days  
Heating Degree Days 9    
Growing Degree Days 6 (Base 50)    
Moisture  
Dew Point 35 °F    
Average Humidity 48    
Maximum Humidity 87    
Minimum Humidity 23    
Precipitation  
Precipitation 0.00 in - - ()
Sea Level Pressure  
Sea Level Pressure 30.20 in    
Wind  
Wind Speed 4 mph (SSW)    
Max Wind Speed 16 mph    
Max Gust Speed 22 mph    
Visibility 10 miles    
Events      
Averages and records for this station are not official NWS values.
T = Trace of Precipitation, MM = Missing Value Source: NWS Daily Summary

Daily Weather History Graph

Daily Weather History Graph

Search for Another Location

Airport or City:

Astronomy

Apr. 10, 2014 Rise Set
Actual Time 6:51 AM EDT 7:46 PM EDT
Civil Twilight 6:26 AM EDT 8:12 PM EDT
Nautical Twilight 5:55 AM EDT 8:42 PM EDT
Astronomical Twilight 5:23 AM EDT 9:14 PM EDT
Moon 3:37 PM EDT (4/10) 4:04 AM EDT (4/10)
Length of Visible Light 13h 46m
Length of Day
12h 54m
Waxing Gibbous, 79% of the Moon is Illuminated
Apr 10
Waxing Gibbous
Apr 15
Full
Apr 22
Last Quarter
Apr 29
New
May 6
First Quarter

Hourly Weather History & Observations

Time (EDT) Temp. Windchill Dew Point Humidity Pressure Visibility Wind Dir Wind Speed Gust Speed Precip Events Conditions
12:15 AM 46.4 °F 45.2 °F 37.4 °F 71% 30.13 in 10.0 mi NNW 3.5 mph - N/A   Clear
12:35 AM 46.4 °F - 35.6 °F 66% 30.13 in 10.0 mi Calm Calm - N/A   Clear
12:55 AM 46.4 °F 45.2 °F 35.6 °F 66% 30.13 in 10.0 mi WSW 3.5 mph - N/A   Clear
1:15 AM 44.6 °F - 35.6 °F 71% 30.14 in 10.0 mi Calm Calm - N/A   Clear
1:35 AM 42.8 °F - 33.8 °F 70% 30.14 in 10.0 mi Calm Calm - N/A   Clear
1:55 AM 42.8 °F - 35.6 °F 76% 30.14 in 10.0 mi Calm Calm - N/A   Clear
2:15 AM 42.8 °F - 35.6 °F 76% 30.14 in 10.0 mi Calm Calm - N/A   Clear
2:35 AM 41.0 °F - 35.6 °F 81% 30.14 in 10.0 mi Calm Calm - N/A   Clear
2:55 AM 41.0 °F - 35.6 °F 81% 30.14 in 10.0 mi Calm Calm - N/A   Clear
3:15 AM 39.2 °F - 35.6 °F 87% 30.14 in 10.0 mi Calm Calm - N/A   Clear
3:35 AM 39.2 °F - 35.6 °F 87% 30.15 in 10.0 mi Calm Calm - N/A   Clear
3:55 AM 39.2 °F 37.0 °F 33.8 °F 81% 30.15 in 10.0 mi West 3.5 mph - N/A   Clear
4:15 AM 39.2 °F - 33.8 °F 81% 30.16 in 10.0 mi Calm Calm - N/A   Clear
4:35 AM 39.2 °F - 33.8 °F 81% 30.17 in 10.0 mi Calm Calm - N/A   Clear
4:55 AM 37.4 °F - 33.8 °F 87% 30.18 in 10.0 mi Calm Calm - N/A   Clear
5:15 AM 37.4 °F - 33.8 °F 87% 30.18 in 10.0 mi Calm Calm - N/A   Clear
5:35 AM 37.4 °F - 33.8 °F 87% 30.19 in 10.0 mi Calm Calm - N/A   Clear
5:55 AM 37.4 °F - 33.8 °F 87% 30.19 in 10.0 mi Calm Calm - N/A   Clear
6:15 AM 39.2 °F - 33.8 °F 81% 30.20 in 10.0 mi Calm Calm - N/A   Clear
6:35 AM 37.4 °F - 33.8 °F 87% 30.21 in 10.0 mi Calm Calm - N/A   Clear
6:55 AM 37.4 °F - 32.0 °F 81% 30.22 in 10.0 mi Calm Calm - N/A   Clear
7:15 AM 37.4 °F - 33.8 °F 87% 30.24 in 10.0 mi Calm Calm - N/A   Clear
7:35 AM 39.2 °F - 33.8 °F 81% 30.25 in 10.0 mi Calm Calm - N/A   Clear
7:55 AM 42.8 °F - 35.6 °F 76% 30.26 in 10.0 mi Calm Calm - N/A   Clear
8:15 AM 46.4 °F - 39.2 °F 76% 30.26 in 10.0 mi Calm Calm - N/A   Clear
8:35 AM 51.8 °F - 39.2 °F 62% 30.26 in 10.0 mi Calm Calm - N/A   Clear
8:55 AM 53.6 °F - 39.2 °F 58% 30.26 in 10.0 mi Calm Calm - N/A   Clear
9:15 AM 57.2 °F - 39.2 °F 51% 30.27 in 10.0 mi Calm Calm - N/A   Clear
9:35 AM 60.8 °F - 35.6 °F 39% 30.27 in 10.0 mi Calm Calm - N/A   Clear
9:55 AM 60.8 °F - 35.6 °F 39% 30.28 in 10.0 mi ESE 3.5 mph - N/A   Clear
10:15 AM 62.6 °F - 35.6 °F 37% 30.28 in 10.0 mi ESE 3.5 mph - N/A   Clear
10:35 AM 64.4 °F - 35.6 °F 34% 30.28 in 10.0 mi Calm Calm - N/A   Clear
10:55 AM 64.4 °F - 35.6 °F 34% 30.29 in 10.0 mi Calm Calm - N/A   Clear
11:15 AM 66.2 °F - 35.6 °F 32% 30.28 in 10.0 mi Calm Calm - N/A   Clear
11:35 AM 68.0 °F - 35.6 °F 30% 30.27 in 10.0 mi South 4.6 mph - N/A   Clear
11:55 AM 69.8 °F - 33.8 °F 27% 30.26 in 10.0 mi SW 9.2 mph - N/A   Clear
12:15 PM 69.8 °F - 33.8 °F 27% 30.25 in 10.0 mi SW 8.1 mph - N/A   Clear
12:35 PM 69.8 °F - 33.8 °F 27% 30.24 in 10.0 mi SW 12.7 mph 18.4 mph N/A   Clear
12:55 PM 71.6 °F - 33.8 °F 25% 30.23 in 10.0 mi SW 5.8 mph - N/A   Clear
1:15 PM 71.6 °F - 35.6 °F 27% 30.23 in 10.0 mi SW 12.7 mph 16.1 mph N/A   Clear
1:35 PM 73.4 °F - 35.6 °F 25% 30.22 in 10.0 mi SW 10.4 mph 21.9 mph N/A   Clear
1:55 PM 73.4 °F - 35.6 °F 25% 30.22 in 10.0 mi SW 8.1 mph 19.6 mph N/A   Clear
2:15 PM 73.4 °F - 35.6 °F 25% 30.21 in 10.0 mi SSW 13.8 mph 19.6 mph N/A   Clear
2:35 PM 73.4 °F - 35.6 °F 25% 30.20 in 10.0 mi WSW 6.9 mph 19.6 mph N/A   Clear
2:55 PM 73.4 °F - 35.6 °F 25% 30.19 in 10.0 mi WSW 11.5 mph 16.1 mph N/A   Clear
3:15 PM 73.4 °F - 35.6 °F 25% 30.19 in 10.0 mi SW 11.5 mph - N/A   Clear
3:35 PM 75.2 °F - 35.6 °F 24% 30.18 in 10.0 mi SSW 12.7 mph 19.6 mph N/A   Clear
3:55 PM 75.2 °F - 35.6 °F 24% 30.17 in 10.0 mi SW 11.5 mph 21.9 mph N/A   Clear
4:15 PM 75.2 °F - 35.6 °F 24% 30.16 in 10.0 mi SSW 13.8 mph - N/A   Clear
4:35 PM 75.2 °F - 37.4 °F 25% 30.16 in 10.0 mi SW 12.7 mph 19.6 mph N/A   Clear
4:55 PM 75.2 °F - 35.6 °F 24% 30.16 in 10.0 mi SW 12.7 mph 19.6 mph N/A   Clear
5:15 PM 75.2 °F - 35.6 °F 24% 30.16 in 10.0 mi SSW 16.1 mph 20.7 mph N/A   Clear
5:35 PM 75.2 °F - 35.6 °F 24% 30.16 in 10.0 mi SW 12.7 mph - N/A   Clear
5:55 PM 75.2 °F - 35.6 °F 24% 30.16 in 10.0 mi SW 11.5 mph - N/A   Clear
6:15 PM 73.4 °F - 35.6 °F 25% 30.16 in 10.0 mi SW 16.1 mph - N/A   Clear
6:35 PM 73.4 °F - 33.8 °F 23% 30.16 in 10.0 mi SW 13.8 mph 19.6 mph N/A   Clear
6:55 PM 71.6 °F - 33.8 °F 25% 30.16 in 10.0 mi SW 9.2 mph - N/A   Clear
7:15 PM 71.6 °F - 33.8 °F 25% 30.16 in 10.0 mi SSW 6.9 mph - N/A   Clear
7:35 PM 69.8 °F - 33.8 °F 27% 30.16 in 10.0 mi SSW 8.1 mph - N/A   Clear
7:55 PM 66.2 °F - 33.8 °F 30% 30.16 in 10.0 mi SSW 6.9 mph - N/A   Clear
8:15 PM 66.2 °F - 33.8 °F 30% 30.16 in 10.0 mi South 5.8 mph - N/A   Clear
8:35 PM 64.4 °F - 33.8 °F 32% 30.17 in 10.0 mi South 5.8 mph - N/A   Clear
8:55 PM 62.6 °F - 33.8 °F 34% 30.19 in 10.0 mi SSW 6.9 mph - N/A   Clear
9:15 PM 62.6 °F - 33.8 °F 34% 30.19 in 10.0 mi SSW 6.9 mph - N/A   Clear
9:35 PM 60.8 °F - 33.8 °F 36% 30.20 in 10.0 mi SSW 6.9 mph - N/A   Clear
9:55 PM 60.8 °F - 33.8 °F 36% 30.20 in 10.0 mi SSW 6.9 mph - N/A   Clear
10:15 PM 59.0 °F - 35.6 °F 42% 30.21 in 10.0 mi SW 9.2 mph - N/A   Clear
10:35 PM 59.0 °F - 35.6 °F 42% 30.20 in 10.0 mi SSW 8.1 mph - N/A   Clear
10:55 PM 59.0 °F - 33.8 °F 39% 30.20 in 10.0 mi SSW 9.2 mph - N/A   Clear
11:15 PM 57.2 °F - 33.8 °F 41% 30.20 in 10.0 mi South 6.9 mph - N/A   Clear
11:35 PM 57.2 °F - 33.8 °F 41% 30.20 in 10.0 mi South 6.9 mph - N/A   Clear
11:55 PM 57.2 °F - 35.6 °F 44% 30.21 in 10.0 mi South 8.1 mph - N/A   Clear